| time (UTC) | temp F | wind direction | speed MPH | gust MPH | rain 1hr in | rain 24hr in | rain mn in | humidity % | barometer mb |
| 20260504202904 | 64 | 27 | 6.0 | 16.0 | 0.00 | 0.04 | 0.04 | 50 | 1003.2 |
| 20260504202404 | 63 | 49 | 3.0 | 12.0 | 0.00 | 0.04 | 0.04 | 52 | 1003.1 |
| 20260504201904 | 63 | 72 | 4.0 | 18.0 | 0.00 | 0.04 | 0.04 | 51 | 1003.1 |
| 20260504201404 | 63 | 64 | 5.0 | 13.0 | 0.00 | 0.04 | 0.04 | 51 | 1003.2 |
| 20260504200904 | 64 | 27 | 9.0 | 15.0 | 0.00 | 0.04 | 0.04 | 51 | 1003.1 |
| 20260504200404 | 63 | 28 | 7.0 | 15.0 | 0.00 | 0.04 | 0.04 | 51 | 1003.2 |
| 20260504195904 | 63 | 31 | 3.0 | 13.0 | 0.00 | 0.04 | 0.04 | 54 | 1003.2 |
| 20260504194904 | 62 | 101 | 3.0 | 12.0 | 0.00 | 0.04 | 0.04 | 53 | 1003.1 |
| 20260504193904 | 62 | 40 | 1.0 | 12.0 | 0.00 | 0.04 | 0.04 | 53 | 1003.4 |
| 20260504193404 | 63 | 43 | 2.0 | 12.0 | 0.00 | 0.04 | 0.04 | 54 | 1003.4 |
| 20260504192904 | 62 | 32 | 9.0 | 16.0 | 0.00 | 0.04 | 0.04 | 58 | 1003.4 |
| 20260504192404 | 61 | 13 | 5.0 | 13.0 | 0.00 | 0.04 | 0.04 | 56 | 1003.3 |
| 20260504190905 | 60 | 35 | 8.0 | 13.0 | 0.00 | 0.04 | 0.04 | 58 | 1003.4 |
| 20260504190404 | 60 | 13 | 4.0 | 12.0 | 0.00 | 0.04 | 0.04 | 61 | 1003.5 |
| 20260504185904 | 59 | 31 | 5.0 | 12.0 | 0.00 | 0.04 | 0.04 | 59 | 1003.5 |
| 20260504184404 | 59 | 42 | 7.0 | 13.0 | 0.00 | 0.04 | 0.04 | 59 | 1003.8 |
| 20260504183405 | 59 | 37 | 3.0 | 12.0 | 0.00 | 0.04 | 0.04 | 61 | 1003.9 |
| 20260504182906 | 59 | 62 | 9.0 | 17.0 | 0.00 | 0.04 | 0.04 | 63 | 1004.0 |
| 20260504182404 | 59 | 17 | 9.0 | 17.0 | 0.00 | 0.04 | 0.04 | 64 | 1004.0 |
| 20260504181904 | 58 | 9 | 9.0 | 17.0 | 0.00 | 0.04 | 0.04 | 62 | 1004.0 |
| 20260504181404 | 59 | 16 | 9.0 | 23.0 | 0.00 | 0.04 | 0.04 | 64 | 1004.0 |
| 20260504180905 | 60 | 24 | 3.0 | 18.0 | 0.00 | 0.04 | 0.04 | 66 | 1004.0 |
| 20260504180404 | 59 | 12 | 10.0 | 17.0 | 0.00 | 0.04 | 0.04 | 67 | 1003.9 |
| 20260504175405 | 58 | 24 | 5.0 | 12.0 | 0.00 | 0.04 | 0.04 | 72 | 1004.0 |
| 20260504174904 | 57 | 9 | 7.0 | 12.0 | 0.01 | 0.04 | 0.04 | 74 | 1004.0 |
| 20260504174404 | 56 | 68 | 0.0 | 3.0 | 0.01 | 0.04 | 0.04 | 76 | 1004.1 |
| 20260504173905 | 56 | 79 | 2.0 | 10.0 | 0.01 | 0.04 | 0.04 | 76 | 1004.1 |
| 20260504173404 | 56 | 81 | 6.0 | 12.0 | 0.01 | 0.04 | 0.04 | 76 | 1004.2 |
| 20260504172904 | 55 | 80 | 5.0 | 12.0 | 0.01 | 0.04 | 0.04 | 81 | 1004.3 |
| 20260504172404 | 54 | 67 | 3.0 | 9.0 | 0.01 | 0.04 | 0.04 | 80 | 1004.3 |
| 20260504171905 | 54 | 66 | 3.0 | 9.0 | 0.02 | 0.04 | 0.04 | 80 | 1004.2 |
| 20260504171405 | 54 | 49 | 0.0 | 0.0 | 0.03 | 0.04 | 0.04 | 83 | 1004.4 |
| 20260504160404 | 54 | 32 | 2.0 | 8.0 | 0.00 | 0.00 | 0.00 | 71 | 1004.0 |
| 20260504150904 | 56 | 301 | 3.0 | 10.0 | 0.00 | 0.00 | 0.00 | 61 | 1003.3 |
| 20260504140904 | 52 | 341 | 8.0 | 14.0 | 0.00 | 0.00 | 0.00 | 64 | 1004.3 |
| 20260504140404 | 51 | 316 | 5.0 | 14.0 | 0.00 | 0.00 | 0.00 | 65 | 1004.5 |
| 20260504130404 | 42 | 67 | 0.0 | 0.0 | 0.00 | 0.00 | 0.00 | 77 | 1005.4 |
| 20260504110404 | 35 | 67 | 0.0 | 1.0 | 0.00 | 0.00 | 0.00 | 90 | 1006.1 |
| 20260504100404 | 30 | 67 | 0.0 | 0.0 | 0.00 | 0.00 | 0.00 | 94 | 1006.1 |
| 20260504081904 | 29 | 67 | 0.0 | 0.0 | 0.00 | 0.00 | 0.00 | 92 | 1005.9 |
| 20260504081404 | 30 | 67 | 0.0 | 0.0 | 0.00 | 0.00 | 0.00 | 92 | 1005.8 |
| 20260504080904 | 29 | 67 | 0.0 | 0.0 | 0.00 | 0.00 | 0.00 | 92 | 1005.8 |
| 20260504050404 | 34 | 67 | 0.0 | 0.0 | 0.00 | 0.00 | 0.00 | 82 | 1005.3 |
| 20260504045904 | 34 | 67 | 0.0 | 0.0 | 0.00 | 0.00 | 0.00 | 82 | 1005.3 |
| 20260504045404 | 34 | 67 | 0.0 | 0.0 | 0.00 | 0.00 | 0.00 | 81 | 1005.3 |
| 20260504044904 | 34 | 67 | 0.0 | 0.0 | 0.00 | 0.00 | 0.00 | 81 | 1005.4 |
| 20260504044404 | 34 | 67 | 0.0 | 0.0 | 0.00 | 0.00 | 0.00 | 79 | 1005.4 |
| 20260504043904 | 35 | 67 | 0.0 | 0.0 | 0.00 | 0.00 | 0.00 | 78 | 1005.4 |
| 20260504042904 | 36 | 67 | 0.0 | 0.0 | 0.00 | 0.00 | 0.00 | 78 | 1005.3 |
| 20260504041904 | 36 | 67 | 0.0 | 0.0 | 0.00 | 0.00 | 0.00 | 75 | 1005.4 |
| 20260504040904 | 37 | 67 | 0.0 | 0.0 | 0.00 | 0.01 | 0.00 | 70 | 1005.3 |
| 20260504040404 | 38 | 67 | 0.0 | 0.0 | 0.00 | 0.01 | 0.00 | 69 | 1005.2 |
| 20260504035904 | 39 | 67 | 0.0 | 0.0 | 0.00 | 0.01 | 0.01 | 68 | 1005.2 |
| 20260504035404 | 40 | 67 | 0.0 | 0.0 | 0.00 | 0.01 | 0.01 | 66 | 1005.2 |
| 20260504034904 | 41 | 67 | 0.0 | 0.0 | 0.00 | 0.01 | 0.01 | 65 | 1005.1 |
| 20260504034404 | 40 | 67 | 0.0 | 0.0 | 0.00 | 0.01 | 0.01 | 66 | 1005.1 |
| 20260504033904 | 40 | 67 | 0.0 | 0.0 | 0.00 | 0.01 | 0.01 | 66 | 1005.0 |
| 20260504033404 | 41 | 67 | 0.0 | 0.0 | 0.00 | 0.01 | 0.01 | 65 | 1005.0 |
| 20260504032404 | 40 | 67 | 0.0 | 0.0 | 0.00 | 0.01 | 0.01 | 66 | 1005.0 |
| 20260504031904 | 41 | 67 | 0.0 | 0.0 | 0.00 | 0.01 | 0.01 | 65 | 1005.0 |
| 20260504031404 | 41 | 67 | 0.0 | 0.0 | 0.00 | 0.01 | 0.01 | 65 | 1005.0 |
| 20260504030904 | 41 | 67 | 0.0 | 0.0 | 0.00 | 0.01 | 0.01 | 65 | 1005.0 |
| 20260504030404 | 41 | 67 | 0.0 | 0.0 | 0.00 | 0.01 | 0.01 | 65 | 1005.0 |
| 20260504025904 | 41 | 67 | 0.0 | 0.0 | 0.00 | 0.01 | 0.01 | 65 | 1005.0 |
| 20260504025404 | 41 | 67 | 0.0 | 1.0 | 0.00 | 0.01 | 0.01 | 65 | 1004.9 |
| 20260504024904 | 41 | 67 | 0.0 | 1.0 | 0.00 | 0.01 | 0.01 | 65 | 1005.0 |
| 20260504024403 | 41 | 67 | 1.0 | 5.0 | 0.00 | 0.01 | 0.01 | 65 | 1005.0 |
| 20260504023904 | 40 | 67 | 0.0 | 0.0 | 0.00 | 0.01 | 0.01 | 65 | 1005.0 |
| 20260504023404 | 40 | 67 | 0.0 | 0.0 | 0.00 | 0.01 | 0.01 | 65 | 1005.0 |
| 20260504022404 | 40 | 67 | 0.0 | 0.0 | 0.00 | 0.01 | 0.01 | 65 | 1004.9 |
| 20260504021404 | 41 | 67 | 0.0 | 0.0 | 0.00 | 0.01 | 0.01 | 64 | 1005.0 |
| 20260504020404 | 41 | 67 | 0.0 | 0.0 | 0.00 | 0.01 | 0.01 | 64 | 1004.9 |
| 20260504015404 | 41 | 67 | 0.0 | 0.0 | 0.00 | 0.01 | 0.01 | 63 | 1004.9 |
| 20260504014904 | 41 | 67 | 0.0 | 0.0 | 0.00 | 0.01 | 0.01 | 63 | 1004.9 |
| 20260504014404 | 41 | 67 | 0.0 | 0.0 | 0.00 | 0.01 | 0.01 | 62 | 1004.9 |
| 20260504013904 | 42 | 67 | 0.0 | 0.0 | 0.00 | 0.01 | 0.01 | 61 | 1004.9 |
| 20260504013404 | 42 | 67 | 0.0 | 0.0 | 0.00 | 0.01 | 0.01 | 60 | 1004.8 |
| 20260504012904 | 42 | 67 | 0.0 | 2.0 | 0.00 | 0.01 | 0.01 | 60 | 1004.8 |
| 20260504012404 | 43 | 67 | 1.0 | 3.0 | 0.00 | 0.01 | 0.01 | 59 | 1004.7 |
| 20260504011904 | 43 | 67 | 0.0 | 1.0 | 0.00 | 0.01 | 0.01 | 59 | 1004.7 |
| 20260504010904 | 43 | 67 | 0.0 | 2.0 | 0.00 | 0.01 | 0.01 | 58 | 1004.6 |
| 20260504010404 | 43 | 67 | 0.0 | 5.0 | 0.00 | 0.01 | 0.01 | 58 | 1004.6 |
| 20260504005904 | 44 | 78 | 0.0 | 3.0 | 0.00 | 0.01 | 0.01 | 58 | 1004.6 |
| 20260504004404 | 44 | 96 | 3.0 | 9.0 | 0.00 | 0.01 | 0.01 | 57 | 1004.4 |
| 20260504003904 | 44 | 51 | 0.0 | 0.0 | 0.00 | 0.01 | 0.01 | 56 | 1004.3 |
| 20260504003404 | 44 | 51 | 0.0 | 0.0 | 0.00 | 0.01 | 0.01 | 55 | 1004.2 |
| 20260504002905 | 45 | 51 | 1.0 | 6.0 | 0.00 | 0.01 | 0.01 | 55 | 1004.1 |
| 20260504002404 | 45 | 44 | 0.0 | 9.0 | 0.00 | 0.01 | 0.01 | 55 | 1004.1 |
| 20260504001904 | 45 | 68 | 1.0 | 6.0 | 0.00 | 0.01 | 0.01 | 54 | 1003.9 |
| 20260504001405 | 45 | 59 | 1.0 | 5.0 | 0.00 | 0.01 | 0.01 | 54 | 1003.9 |
| 20260504000904 | 46 | 76 | 2.0 | 9.0 | 0.00 | 0.01 | 0.01 | 53 | 1003.8 |
| 20260503235905 | 46 | 64 | 2.0 | 8.0 | 0.00 | 0.01 | 0.01 | 52 | 1003.7 |
| 20260503235404 | 46 | 85 | 1.0 | 3.0 | 0.00 | 0.01 | 0.01 | 52 | 1003.6 |
| 20260503234905 | 46 | 85 | 2.0 | 10.0 | 0.00 | 0.01 | 0.01 | 51 | 1003.6 |
| 20260503234404 | 47 | 111 | 3.0 | 10.0 | 0.00 | 0.01 | 0.01 | 50 | 1003.5 |
| 20260503233904 | 47 | 86 | 3.0 | 18.0 | 0.00 | 0.01 | 0.01 | 50 | 1003.4 |
| 20260503233404 | 47 | 77 | 5.0 | 12.0 | 0.00 | 0.01 | 0.01 | 50 | 1003.4 |
| 20260503232404 | 47 | 101 | 1.0 | 13.0 | 0.00 | 0.01 | 0.01 | 49 | 1003.3 |
| 20260503231404 | 47 | 91 | 3.0 | 12.0 | 0.00 | 0.01 | 0.01 | 48 | 1003.3 |
| 20260503230904 | 47 | 100 | 8.0 | 20.0 | 0.00 | 0.01 | 0.01 | 48 | 1003.3 |
| 20260503230404 | 47 | 89 | 9.0 | 20.0 | 0.00 | 0.01 | 0.01 | 47 | 1003.2 |
| 20260503225905 | 48 | 86 | 3.0 | 8.0 | 0.00 | 0.01 | 0.01 | 47 | 1003.2 |
| 20260503225404 | 48 | 73 | 2.0 | 9.0 | 0.00 | 0.01 | 0.01 | 47 | 1003.0 |
| 20260503224905 | 48 | 95 | 3.0 | 14.0 | 0.00 | 0.01 | 0.01 | 47 | 1003.0 |
| 20260503224404 | 48 | 70 | 6.0 | 18.0 | 0.00 | 0.01 | 0.01 | 46 | 1003.0 |
| 20260503223904 | 48 | 105 | 7.0 | 21.0 | 0.00 | 0.01 | 0.01 | 46 | 1003.0 |
| 20260503223404 | 49 | 95 | 6.0 | 12.0 | 0.00 | 0.01 | 0.01 | 46 | 1002.9 |
| 20260503222404 | 48 | 111 | 5.0 | 16.0 | 0.00 | 0.01 | 0.01 | 47 | 1002.8 |
| 20260503221904 | 48 | 106 | 3.0 | 14.0 | 0.00 | 0.01 | 0.01 | 47 | 1002.8 |
| 20260503221404 | 48 | 110 | 3.0 | 13.0 | 0.00 | 0.01 | 0.01 | 46 | 1002.8 |
| 20260503220904 | 48 | 87 | 6.0 | 17.0 | 0.00 | 0.01 | 0.01 | 45 | 1002.7 |
| 20260503220405 | 49 | 76 | 6.0 | 21.0 | 0.00 | 0.01 | 0.01 | 45 | 1002.7 |
| 20260503215905 | 50 | 101 | 11.0 | 21.0 | 0.00 | 0.01 | 0.01 | 44 | 1002.6 |
| 20260503215404 | 51 | 85 | 5.0 | 20.0 | 0.00 | 0.01 | 0.01 | 44 | 1002.6 |
| 20260503214904 | 51 | 100 | 6.0 | 16.0 | 0.00 | 0.01 | 0.01 | 43 | 1002.5 |
| 20260503214404 | 51 | 85 | 10.0 | 24.0 | 0.00 | 0.01 | 0.01 | 43 | 1002.3 |
| 20260503213904 | 50 | 55 | 4.0 | 21.0 | 0.00 | 0.01 | 0.01 | 44 | 1002.4 |
| 20260503213404 | 50 | 79 | 9.0 | 24.0 | 0.00 | 0.01 | 0.01 | 43 | 1002.3 |
| 20260503212404 | 50 | 84 | 9.0 | 21.0 | 0.00 | 0.01 | 0.01 | 43 | 1002.3 |
| 20260503211904 | 50 | 73 | 9.0 | 21.0 | 0.00 | 0.01 | 0.01 | 42 | 1002.3 |
| 20260503211404 | 50 | 72 | 10.0 | 20.0 | 0.00 | 0.01 | 0.01 | 43 | 1002.3 |
| 20260503210904 | 50 | 75 | 8.0 | 15.0 | 0.00 | 0.01 | 0.01 | 43 | 1002.3 |
| 20260503210404 | 50 | 75 | 5.0 | 16.0 | 0.00 | 0.01 | 0.01 | 43 | 1002.2 |
| 20260503205904 | 50 | 93 | 5.0 | 17.0 | 0.00 | 0.01 | 0.01 | 43 | 1002.1 |
| 20260503205404 | 51 | 68 | 6.0 | 18.0 | 0.00 | 0.01 | 0.01 | 42 | 1002.0 |
| 20260503204904 | 51 | 91 | 6.0 | 16.0 | 0.00 | 0.01 | 0.01 | 43 | 1002.0 |
| 20260503204405 | 51 | 92 | 7.0 | 18.0 | 0.00 | 0.01 | 0.01 | 43 | 1002.0 |
| 20260503203903 | 51 | 93 | 10.0 | 18.0 | 0.00 | 0.01 | 0.01 | 42 | 1002.0 |
| 20260503203404 | 51 | 90 | 6.0 | 20.0 | 0.00 | 0.01 | 0.01 | 42 | 1001.9 |